DW2913 Weather Reports


time (UTC)temp
C
wind
direction
speed
KPH
gust
KPH
rain 1hr
cm
rain 24hr
cm
rain mn
cm
humidity
%
barometer
mb
20210224224213 5 160 0.0 6.4 0.00 0.00 0.00 95 1031.2
20210224223708 5 160 0.0 6.4 0.00 0.00 0.00 95 1031.2
20210224223209 5 160 0.0 9.7 0.00 0.00 0.00 95 1031.2
20210224222929 4 160 1.6 9.7 0.00 0.00 0.00 95 1031.2
20210224222212 5 160 3.2 9.7 0.00 0.00 0.00 95 1031.2
20210224221708 5 160 4.8 9.7 0.00 0.00 0.00 94 1031.2
20210224221209 5 160 4.8 8.0 0.00 0.00 0.00 94 1031.2
20210224220707 5 160 1.6 8.0 0.00 0.00 0.00 94 1031.3
20210224220211 5 160 0.0 0.0 0.00 0.00 0.00 95 1031.3
20210224215709 5 160 0.0 0.0 0.00 0.00 0.00 95 1031.3
20210224215414 5 160 0.0 0.0 0.00 0.00 0.00 96 1031.3
20210224214716 4 160 0.0 0.0 0.00 0.00 0.00 95 1031.3
20210224214212 4 160 0.0 0.0 0.00 0.00 0.00 96 1031.4
20210224213708 5 160 0.0 0.0 0.00 0.00 0.00 95 1031.4
20210224213216 5 160 0.0 0.0 0.00 0.00 0.00 95 1031.4
20210224212907 5 160 0.0 0.0 0.00 0.00 0.00 95 1031.5
20210224212210 5 160 0.0 0.0 0.00 0.00 0.00 95 1031.7
20210224211712 5 160 0.0 0.0 0.00 0.00 0.00 95 1031.6
20210224211212 5 160 0.0 0.0 0.00 0.00 0.00 95 1031.5
20210224210711 5 160 0.0 0.0 0.00 0.00 0.00 95 1031.6
20210224210211 5 160 0.0 1.6 0.00 0.00 0.00 95 1031.6
20210224205714 5 160 0.0 1.6 0.00 0.00 0.00 95 1031.6
20210224205318 5 160 0.0 6.4 0.00 0.00 0.00 95 1031.6
20210224204708 5 156 0.0 6.4 0.00 0.00 0.00 95 1031.7
20210224204211 5 155 1.6 6.4 0.00 0.00 0.00 95 1031.7
20210224203714 5 155 1.6 6.4 0.00 0.00 0.00 95 1031.7
20210224203214 5 155 0.0 6.4 0.00 0.00 0.00 95 1031.6
20210224202855 5 155 1.6 6.4 0.00 0.00 0.00 94 1031.7
20210224202210 6 155 1.6 6.4 0.00 0.00 0.00 94 1031.7
20210224201713 6 155 0.0 6.4 0.00 0.00 0.00 93 1031.6
20210224201213 6 155 0.0 6.4 0.00 0.00 0.00 93 1031.6
20210224200713 7 155 1.6 6.4 0.00 0.00 0.00 94 1031.6
20210224200212 7 155 1.6 8.0 0.00 0.00 0.00 94 1031.6
20210224195711 7 155 1.6 8.0 0.00 0.00 0.00 95 1031.7
20210224195358 7 155 1.6 8.0 0.00 0.00 0.00 95 1031.6
20210224194708 6 155 3.2 8.0 0.00 0.00 0.00 95 1031.7
20210224194221 6 155 3.2 8.0 0.00 0.00 0.00 94 1031.7
20210224193708 7 155 1.6 8.0 0.00 0.00 0.00 94 1031.6
20210224193209 7 155 1.6 9.7 0.00 0.00 0.00 94 1031.7
20210224192909 7 155 1.6 9.7 0.00 0.00 0.00 94 1031.8
20210224192212 7 155 3.2 9.7 0.00 0.00 0.00 94 1031.7
20210224191708 7 155 4.8 9.7 0.00 0.00 0.00 94 1031.8
20210224191210 7 154 3.2 0.0 0.00 0.00 0.00 93 1031.9
20210224190718 7 98 0.0 0.0 0.00 0.00 0.00 93 1031.8
20210224190209 7 80 0.0 0.0 0.00 0.00 0.00 93 1031.9
20210224185713 7 80 0.0 0.0 0.00 0.00 0.00 92 1031.9
20210224185353 8 80 0.0 0.0 0.00 0.00 0.00 91 1031.9
20210224184710 8 80 0.0 0.0 0.00 0.00 0.00 89 1031.9
20210224184212 8 76 0.0 0.0 0.00 0.00 0.00 88 1032.0
20210224183710 9 76 0.0 0.0 0.00 0.00 0.00 87 1032.1
20210224183210 9 76 0.0 0.0 0.00 0.00 0.00 86 1032.1
20210224182834 10 76 0.0 0.0 0.00 0.00 0.00 86 1032.2
20210224182210 10 76 0.0 0.0 0.00 0.00 0.00 84 1032.2
20210224181710 10 76 0.0 0.0 0.00 0.00 0.00 84 1032.2
20210224181211 10 76 0.0 0.0 0.00 0.00 0.00 85 1032.2
20210224180710 10 76 0.0 0.0 0.00 0.00 0.00 84 1032.2
20210224180217 10 76 0.0 0.0 0.00 0.00 0.00 84 1032.2
20210224175709 10 76 0.0 0.0 0.00 0.00 0.00 84 1032.2
20210224175328 10 76 0.0 0.0 0.00 0.00 0.00 84 1032.3
20210224174709 11 76 0.0 0.0 0.00 0.00 0.00 83 1032.2
20210224174213 11 76 0.0 0.0 0.00 0.00 0.00 81 1032.3
20210224173709 12 76 0.0 0.0 0.00 0.00 0.00 74 1032.2
20210224173212 13 76 0.0 0.0 0.00 0.00 0.00 74 1032.2
20210224172806 13 76 0.0 0.0 0.00 0.00 0.00 72 1032.2
20210224172211 13 76 0.0 0.0 0.00 0.00 0.00 71 1032.2
20210224171753 13 76 0.0 0.0 0.00 0.00 0.00 69 1032.2
20210224171209 14 76 0.0 0.0 0.00 0.00 0.00 67 1032.2
20210224170708 14 76 0.0 0.0 0.00 0.00 0.00 66 1032.2
20210224170210 15 76 0.0 0.0 0.00 0.00 0.00 66 1032.2
20210224165710 15 76 0.0 0.0 0.00 0.00 0.00 65 1032.3
20210224165307 15 76 0.0 0.0 0.00 0.00 0.00 66 1032.2
20210224164711 15 76 0.0 0.0 0.00 0.00 0.00 66 1032.2
20210224164211 15 76 0.0 0.0 0.00 0.00 0.00 65 1032.1
20210224163708 16 76 0.0 0.0 0.00 0.00 0.00 63 1032.2
20210224163209 16 76 0.0 0.0 0.00 0.00 0.00 62 1032.2
20210224162729 16 76 0.0 0.0 0.00 0.00 0.00 62 1032.2
20210224162209 16 76 0.0 3.2 0.00 0.00 0.00 61 1032.2
20210224161709 16 76 0.0 3.2 0.00 0.00 0.00 60 1032.2
20210224161212 16 76 0.0 3.2 0.00 0.00 0.00 58 1032.2
20210224160707 17 76 0.0 3.2 0.00 0.00 0.00 57 1032.2
20210224160214 17 76 0.0 1.6 0.00 0.00 0.00 57 1032.1
20210224155709 16 76 0.0 1.6 0.00 0.00 0.00 57 1032.2
20210224155334 16 76 0.0 4.8 0.00 0.00 0.00 56 1032.2
20210224154725 17 76 0.0 4.8 0.00 0.00 0.00 56 1032.2
20210224154213 17 76 0.0 1.6 0.00 0.00 0.00 55 1032.1
20210224153709 17 73 0.0 1.6 0.00 0.00 0.00 54 1032.1
20210224153211 17 73 0.0 1.6 0.00 0.00 0.00 53 1032.2
20210224152722 17 73 0.0 1.6 0.00 0.00 0.00 54 1032.3
20210224152211 17 73 0.0 3.2 0.00 0.00 0.00 54 1032.3
20210224151720 17 73 0.0 3.2 0.00 0.00 0.00 52 1032.4
20210224151216 17 73 0.0 6.4 0.00 0.00 0.00 51 1032.4
20210224150712 17 73 0.0 6.4 0.00 0.00 0.00 48 1032.5
20210224150212 17 87 0.0 9.7 0.00 0.00 0.00 51 1032.5
20210224145710 17 87 1.6 9.7 0.00 0.00 0.00 48 1032.5
20210224145314 17 98 1.6 9.7 0.00 0.00 0.00 50 1032.6
20210224144709 17 90 3.2 9.7 0.00 0.00 0.00 48 1032.6
20210224144211 18 90 3.2 9.7 0.00 0.00 0.00 50 1032.6
20210224143708 18 87 3.2 9.7 0.00 0.00 0.00 48 1032.6
20210224143212 18 84 3.2 9.7 0.00 0.00 0.00 47 1032.7
20210224142904 18 66 1.6 9.7 0.00 0.00 0.00 48 1032.7
20210224142209 18 61 3.2 9.7 0.00 0.00 0.00 48 1032.7
20210224141708 18 61 3.2 9.7 0.00 0.00 0.00 47 1032.8
20210224141210 18 67 1.6 11.3 0.00 0.00 0.00 51 1032.8
20210224140707 18 52 1.6 11.3 0.00 0.00 0.00 51 1032.9
20210224140210 18 84 1.6 11.3 0.00 0.00 0.00 50 1032.8
20210224135710 18 113 3.2 11.3 0.00 0.00 0.00 51 1032.9
20210224135213 18 53 3.2 16.1 0.00 0.00 0.00 52 1032.8
20210224134716 18 43 3.2 16.1 0.00 0.00 0.00 52 1032.8
20210224134212 19 60 4.8 16.1 0.00 0.00 0.00 51 1032.8
20210224133709 18 61 6.4 16.1 0.00 0.00 0.00 52 1032.8
20210224133209 18 56 3.2 8.0 0.00 0.00 0.00 53 1032.9
20210224132939 18 82 0.0 8.0 0.00 0.00 0.00 54 1033.0
20210224132213 18 80 0.0 8.0 0.00 0.00 0.00 54 1033.1
20210224131710 18 342 1.6 8.0 0.00 0.00 0.00 58 1033.1
20210224131211 18 342 3.2 11.3 0.00 0.00 0.00 58 1033.2
20210224130709 19 26 1.6 11.3 0.00 0.00 0.00 56 1033.2
20210224130215 18 27 1.6 8.0 0.00 0.00 0.00 56 1033.2
20210224125712 18 27 3.2 8.0 0.00 0.00 0.00 54 1033.3
20210224125445 18 68 3.2 8.0 0.00 0.00 0.00 52 1033.3
20210224124735 18 325 1.6 8.0 0.00 0.00 0.00 56 1033.3
20210224124212 18 347 1.6 8.0 0.00 0.00 0.00 56 1033.4
20210224123707 18 348 0.0 8.0 0.00 0.00 0.00 55 1033.4
20210224123209 18 326 1.6 8.0 0.00 0.00 0.00 55 1033.5
20210224122934 17 330 1.6 8.0 0.00 0.00 0.00 58 1033.6
20210224122210 18 316 1.6 6.4 0.00 0.00 0.00 58 1033.6
20210224121712 18 5 0.0 6.4 0.00 0.00 0.00 57 1033.8
20210224121210 17 18 0.0 8.0 0.00 0.00 0.00 57 1033.8
20210224120707 18 18 1.6 8.0 0.00 0.00 0.00 56 1033.9
20210224120210 18 18 1.6 6.4 0.00 0.00 0.00 54 1034.0
20210224115710 18 10 1.6 6.4 0.00 0.00 0.00 55 1033.9
20210224115350 18 38 1.6 4.8 0.00 0.00 0.00 55 1034.0
20210224114717 18 47 0.0 4.8 0.00 0.00 0.00 55 1034.0
20210224114220 17 48 0.0 0.0 0.00 0.00 0.00 53 1034.2
20210224113713 17 47 0.0 0.0 0.00 0.00 0.00 56 1034.2
20210224113211 18 44 0.0 6.4 0.00 0.00 0.00 54 1034.3
20210224112726 17 44 0.0 6.4 0.00 0.00 0.00 57 1034.3
20210224112214 17 48 1.6 8.0 0.00 0.00 0.00 54 1034.4
20210224111711 17 47 1.6 8.0 0.00 0.00 0.00 56 1034.5
20210224111212 17 49 1.6 0.0 0.00 0.00 0.00 57 1034.4
20210224110710 17 145 0.0 0.0 0.00 0.00 0.00 56 1034.5
20210224110225 17 165 0.0 6.4 0.00 0.00 0.00 61 1034.6
20210224105712 16 165 0.0 6.4 0.00 0.00 0.00 61 1034.5
20210224105320 16 165 0.0 6.4 0.00 0.00 0.00 62 1034.7
20210224104712 17 165 0.0 6.4 0.00 0.00 0.00 58 1034.7
20210224104213 17 165 0.0 1.6 0.00 0.00 0.00 61 1034.7
20210224103709 16 164 0.0 1.6 0.00 0.00 0.00 66 1034.8
20210224103212 15 164 0.0 0.0 0.00 0.00 0.00 64 1034.9
20210224102812 15 164 0.0 0.0 0.00 0.00 0.00 66 1034.8
20210224102213 15 164 0.0 1.6 0.00 0.00 0.00 67 1034.8
20210224101711 15 164 0.0 1.6 0.00 0.00 0.00 69 1034.8
20210224101212 15 164 0.0 1.6 0.00 0.00 0.00 68 1034.8
20210224100710 15 165 0.0 1.6 0.00 0.00 0.00 69 1034.9
20210224100213 14 164 0.0 3.2 0.00 0.00 0.00 73 1034.9
20210224095718 13 164 0.0 3.2 0.00 0.00 0.00 74 1035.0
20210224095317 13 164 0.0 0.0 0.00 0.00 0.00 74 1035.0
20210224094710 13 164 0.0 0.0 0.00 0.00 0.00 73 1035.1
20210224094214 13 164 0.0 8.0 0.00 0.00 0.00 72 1035.2
20210224093709 13 164 0.0 8.0 0.00 0.00 0.00 74 1035.4
20210224093213 13 165 0.0 8.0 0.00 0.00 0.00 77 1035.3
20210224092725 12 165 1.6 8.0 0.00 0.00 0.00 78 1035.4
20210224092211 12 165 1.6 9.7 0.00 0.00 0.00 81 1035.5
20210224091709 12 164 0.0 9.7 0.00 0.00 0.00 82 1035.5
20210224091211 11 164 0.0 9.7 0.00 0.00 0.00 85 1035.5
20210224090712 11 164 3.2 9.7 0.00 0.00 0.00 85 1035.6
20210224090213 11 165 3.2 0.0 0.00 0.00 0.00 81 1035.6
20210224085710 11 163 0.0 0.0 0.00 0.00 0.00 85 1035.6
20210224085328 10 163 0.0 0.0 0.00 0.00 0.00 85 1035.6
20210224084719 10 163 0.0 0.0 0.00 0.00 0.00 85 1035.6
20210224084212 10 163 0.0 0.0 0.00 0.00 0.00 86 1035.7
20210224083709 9 163 0.0 0.0 0.00 0.00 0.00 85 1035.7
20210224083211 9 163 0.0 0.0 0.00 0.00 0.00 86 1035.7
20210224082815 9 163 0.0 0.0 0.00 0.00 0.00 89 1035.7
20210224082212 8 163 0.0 0.0 0.00 0.00 0.00 91 1035.7
20210224081710 7 162 0.0 0.0 0.00 0.00 0.00 94 1035.7
20210224081211 7 162 0.0 0.0 0.00 0.00 0.00 95 1035.7
20210224080709 7 162 0.0 0.0 0.00 0.00 0.00 95 1035.8
20210224080213 6 162 0.0 0.0 0.00 0.00 0.00 95 1035.7
20210224075712 5 162 0.0 0.0 0.00 0.00 0.00 95 1035.8
20210224075416 5 162 0.0 0.0 0.00 0.00 0.00 95 1035.9
20210224074710 4 161 0.0 0.0 0.00 0.00 0.00 95 1035.8
20210224074216 4 162 0.0 0.0 0.00 0.00 0.00 96 1035.8
20210224073712 3 162 0.0 0.0 0.00 0.00 0.00 96 1035.8
20210224073215 3 162 0.0 0.0 0.00 0.00 0.00 96 1035.8
20210224072818 3 161 0.0 0.0 0.00 0.00 0.00 96 1035.8
20210224072211 3 161 0.0 0.0 0.00 0.00 0.00 96 1035.9
20210224071710 3 161 0.0 0.0 0.00 0.00 0.00 96 1035.9
20210224071212 3 161 0.0 0.0 0.00 0.00 0.00 96 1035.9
20210224070709 2 162 0.0 0.0 0.00 0.00 0.00 96 1035.9
20210224070215 2 162 0.0 0.0 0.00 0.00 0.00 96 1035.9
20210224065712 2 162 0.0 0.0 0.00 0.00 0.00 96 1035.9
20210224065414 2 161 0.0 0.0 0.00 0.00 0.00 96 1035.9
20210224064712 2 161 0.0 0.0 0.00 0.00 0.00 96 1035.8
20210224064216 2 161 0.0 0.0 0.00 0.00 0.00 96 1035.9
20210224063709 2 161 0.0 0.0 0.00 0.00 0.00 96 1035.9
20210224063210 2 161 0.0 0.0 0.00 0.00 0.00 96 1035.9
20210224062801 2 162 0.0 0.0 0.00 0.00 0.00 96 1035.9
20210224062215 2 161 0.0 0.0 0.00 0.00 0.00 96 1035.9
20210224061711 2 161 0.0 0.0 0.00 0.00 0.00 96 1035.9
20210224061213 2 161 0.0 0.0 0.00 0.00 0.00 96 1035.9
20210224060713 2 166 0.0 0.0 0.00 0.00 0.00 96 1035.8
20210224060212 2 166 0.0 0.0 0.00 0.00 0.00 96 1035.9
20210224055710 2 166 0.0 0.0 0.00 0.00 0.00 96 1035.9
20210224055332 2 166 0.0 0.0 0.00 0.00 0.00 96 1035.8
20210224054714 2 166 0.0 0.0 0.00 0.00 0.00 96 1035.9
20210224054217 2 166 0.0 0.0 0.00 0.00 0.00 96 1036.0
20210224053713 2 166 0.0 0.0 0.00 0.00 0.00 96 1036.0
20210224053212 2 166 0.0 0.0 0.00 0.00 0.00 96 1035.9
20210224052917 2 167 0.0 0.0 0.00 0.00 0.00 96 1036.0
20210224052215 3 167 0.0 0.0 0.00 0.00 0.00 96 1036.0
20210224051711 3 167 0.0 0.0 0.00 0.00 0.00 96 1036.0
20210224051212 3 167 0.0 0.0 0.00 0.00 0.00 96 1036.0
20210224050708 3 167 0.0 0.0 0.00 0.00 0.00 96 1035.9
20210224050214 2 167 0.0 0.0 0.00 0.00 0.00 96 1036.0
20210224045710 2 167 0.0 0.0 0.00 0.00 0.00 96 1036.0
20210224045227 2 167 0.0 0.0 0.00 0.00 0.00 96 1035.9
20210224044709 2 167 0.0 0.0 0.00 0.00 0.00 96 1036.1
20210224044218 2 167 0.0 0.0 0.00 0.00 0.00 96 1036.0
20210224043717 2 167 0.0 0.0 0.00 0.00 0.00 96 1036.1
20210224043211 2 167 0.0 0.0 0.00 0.00 0.00 96 1036.1
20210224042723 2 167 0.0 0.0 0.00 0.00 0.00 96 1036.1
20210224042217 2 167 0.0 0.0 0.00 0.00 0.00 96 1036.2
20210224041713 3 167 0.0 0.0 0.00 0.00 0.00 96 1036.1
20210224041214 2 167 0.0 0.0 0.00 0.00 0.00 96 1036.1
20210224040710 2 167 0.0 0.0 0.00 0.00 0.00 96 1036.1
20210224040212 3 167 0.0 0.0 0.00 0.00 0.00 96 1036.1
20210224035710 3 167 0.0 0.0 0.00 0.00 0.00 96 1036.1
20210224035242 3 167 0.0 0.0 0.00 0.00 0.00 96 1036.1
20210224034716 3 167 0.0 0.0 0.00 0.00 0.00 96 1036.1
20210224034214 3 167 0.0 0.0 0.00 0.00 0.00 96 1036.1
20210224033710 3 167 0.0 0.0 0.00 0.00 0.00 96 1036.1
20210224033208 3 167 0.0 0.0 0.00 0.00 0.00 96 1036.1
20210224032757 3 168 0.0 0.0 0.00 0.00 0.00 96 1036.1
20210224032211 3 168 0.0 0.0 0.00 0.00 0.00 96 1036.1
20210224031708 3 168 0.0 0.0 0.00 0.00 0.00 96 1036.1
20210224031213 3 168 0.0 0.0 0.00 0.00 0.00 96 1036.1
20210224030707 3 168 0.0 0.0 0.00 0.00 0.00 96 1036.0
20210224030209 3 168 0.0 0.0 0.00 0.00 0.00 96 1036.0
20210224025709 3 168 0.0 0.0 0.00 0.00 0.00 96 1036.1
20210224025325 3 168 0.0 0.0 0.00 0.00 0.00 96 1035.9
20210224024710 3 168 0.0 0.0 0.00 0.00 0.00 96 1036.0
20210224024213 3 168 0.0 0.0 0.00 0.00 0.00 96 1036.1
20210224023708 3 168 0.0 0.0 0.00 0.00 0.00 96 1036.0
20210224023211 3 168 0.0 0.0 0.00 0.00 0.00 96 1036.1
20210224022854 3 168 0.0 0.0 0.00 0.00 0.00 95 1036.0
20210224022210 3 168 0.0 9.7 0.00 0.00 0.00 95 1036.0
20210224021709 3 168 1.6 9.7 0.00 0.00 0.00 95 1036.0
20210224021210 3 168 3.2 9.7 0.00 0.00 0.00 95 1035.9
20210224020708 3 166 4.8 9.7 0.00 0.00 0.00 95 1036.0
20210224020210 4 165 1.6 8.0 0.00 0.00 0.00 94 1035.9
20210224015710 4 166 1.6 8.0 0.00 0.00 0.00 94 1036.0
20210224015211 4 167 1.6 9.7 0.00 0.00 0.00 94 1036.1
20210224014713 4 167 3.2 9.7 0.00 0.00 0.00 94 1036.1
20210224014212 5 167 4.8 9.7 0.00 0.00 0.00 94 1036.1
20210224013710 5 166 4.8 9.7 0.00 0.00 0.00 94 1036.2
20210224013208 5 166 1.6 0.0 0.00 0.00 0.00 94 1036.1
20210224012916 5 170 0.0 0.0 0.00 0.00 0.00 94 1036.1
20210224012212 5 171 0.0 0.0 0.00 0.00 0.00 94 1036.1
20210224011710 5 171 0.0 0.0 0.00 0.00 0.00 95 1036.1
20210224011210 5 171 0.0 0.0 0.00 0.00 0.00 94 1036.1
20210224010710 5 171 0.0 0.0 0.00 0.00 0.00 95 1036.1
20210224010211 5 170 0.0 11.3 0.00 0.00 0.00 94 1036.1
20210224005712 5 171 1.6 11.3 0.00 0.00 0.00 94 1036.1
20210224005330 5 172 4.8 11.3 0.00 0.00 0.00 94 1036.1
20210224004709 5 175 6.4 11.3 0.00 0.00 0.00 99 1036.2
20210224004217 5 173 3.2 9.7 0.00 0.00 0.00 95 1036.2
20210224003708 5 172 1.6 9.7 0.00 0.00 0.00 99 1036.2
20210224003219 5 174 1.6 9.7 0.00 0.00 0.00 94 1036.2
20210224002753 5 177 1.6 9.7 0.00 0.00 0.00 94 1036.2
20210224002209 5 178 0.0 8.0 0.00 0.00 0.00 94 1036.2
20210224001711 5 178 1.6 8.0 0.00 0.00 0.00 94 1036.2
20210224001211 5 178 3.2 9.7 0.00 0.00 0.00 94 1036.2
20210224000713 5 178 6.4 11.3 0.00 0.00 0.00 95 1036.1
20210224000210 5 178 8.0 11.3 0.00 0.00 0.00 95 1036.1
20210223235711 5 178 8.0 11.3 0.00 0.00 0.00 96 1036.2
20210223235216 5 178 8.0 9.7 0.00 0.00 0.00 96 1036.2
20210223234710 5 178 8.0 11.3 0.00 0.00 0.00 95 1036.2
20210223234212 5 178 4.8 11.3 0.00 0.00 0.00 96 1036.1
20210223233710 5 178 4.8 11.3 0.00 0.00 0.00 95 1036.1
20210223233210 5 178 6.4 11.3 0.00 0.00 0.00 95 1036.2
20210223232912 5 177 6.4 11.3 0.00 0.00 0.00 95 1036.2
20210223232213 5 176 4.8 9.7 0.00 0.00 0.00 95 1036.2
20210223231710 5 175 4.8 9.7 0.00 0.00 0.00 95 1036.3
20210223231210 5 175 6.4 9.7 0.00 0.00 0.00 95 1036.3
20210223230709 5 175 6.4 9.7 0.00 0.00 0.00 95 1036.3
20210223230210 5 175 4.8 12.9 0.00 0.00 0.00 95 1036.3
20210223225712 5 175 4.8 12.9 0.00 0.00 0.00 95 1036.3
20210223225339 5 175 8.0 12.9 0.00 0.00 0.00 95 1036.3
20210223224710 5 175 9.7 12.9 0.00 0.00 0.00 94 1036.3